Regional Weather Roundup
Issued by NWS

Home | Current Version | Previous Version | Graphics & Text | Print | Product List | Glossary On
Versions: 1 2 3 4 5 6 7 8 9 10 11 12 13 14 15 16 17 18 19 20 21 22 23 24 25 26 27 28 29 30 31 32 33 34 35 36 37 38 39 40 41 42 43 44 45 46 47 48 49 50
000
ASUS45 KTFX 160504
RWRMT
MONTANA HOURLY WEATHER ROUNDUP
NATIONAL WEATHER SERVICE GREAT FALLS MT
1104 PM MDT TUE APR 15 2014

NOTE: "FAIR" INDICATES FEW OR NO CLOUDS BELOW 12000 FEET WITH NO
SIGNIFICANT WEATHER AND/OR OBSTRUCTIONS TO VISIBILITY.

* THESE STATIONS ARE NOT UNDER NWS QUALITY CONTROL. THEY DO NOT
   REPORT WEATHER SUCH AS PRECIPITATION OR FOG.

MTZ001>007-043-160600-
WEST OF THE DIVIDE
CITY           SKY/WX    TMP DP  RH WIND       PRES   REMARKS
KALISPELL      CLOUDY    36  34  92 S3        29.90S
MISSOULA       LGT RAIN  39  34  82 W18       29.99R WCI  30
BUTTE          PTCLDY    34  19  54 NW8       29.92S WCI  27
MULLAN PASS    CLOUDY    27  27 100 S8        29.90F WCI  19
* ESSEX        N/A       32  31  96 S3         N/A
* LINCOLN      N/A      N/A N/A N/A N/A        N/A
* LOOKOUT PASS N/A       31  31 100 N/A        N/A
* POLSON       N/A       35  30  82 SE2        N/A
* SEELEY LAKE  N/A       33  32  96 N/A        N/A
* THOMP F APT  PTCLDY    31  12  45 N12G32     N/A   WCI  22
$$

MTZ008-052>055-160600-
SOUTHWEST MONTANA
CITY           SKY/WX    TMP DP  RH WIND       PRES   REMARKS
BOZEMAN        CLOUDY    37  27  67 SW7       29.90R WCI  32
DILLON         CLOUDY    36  18  48 W13       29.93R WCI  27
W YELLOWSTONE  N/A       27  23  85 NE1        N/A
* BOULDER HILL N/A       34  18  52 N2G9       N/A
* MONIDA PASS  N/A       26  13  58 NW16       N/A   WCI  13
* RAYNOLDS PAS N/A       28 -14  15 N11        N/A   WCI  18
* WHITEHALL    N/A       39  22  51 W12G17     N/A   WCI  32
* WISE RIVER   N/A       34  18  52 W14G20     N/A   WCI  24
$$

MTZ009>010-012-014-046-048-049-054-160600-
EAST SLOPES AND CENTRAL MONTANA
CITY           SKY/WX    TMP DP  RH WIND       PRES   REMARKS
CUT BANK       LGT SNOW  34  32  92 N8        29.86R WCI  27
GREAT FALLS    CLOUDY    37  34  89 NW3       29.85R
HELENA         MOCLDY    41  27  58 W10G22    29.88R
MALMSTROM AFB  LGT RAIN  39  34  82 W7        29.83R WCI  34
* DEARBORN     N/A       40  35  82 N/A        N/A
* EAST GLACIER N/A       31  31 100 W2         N/A
* MONARCH      N/A       31  28  89 NW12       N/A   WCI  22
* PENDROY      N/A       33  33 100 NW10       N/A   WCI  25
* ROGERS PASS  N/A       31  27  85 SE11G17    N/A   WCI  22
* SAINT MARY   N/A       32  31  96 E2G7       N/A
* SWEET GRASS  N/A       36  34  92 W17        N/A   WCI  26
$$

MTZ011-013-016-021-035-040-045-047-050-051-160600-
NORTH CENTRAL MONTANA
CITY           SKY/WX    TMP DP  RH WIND       PRES   REMARKS
HAVRE          CLOUDY    39  21  48 NE8       29.83R WCI  33
LEWISTOWN      CLOUDY    36  34  92 NW10      29.82R WCI  29
* CHESTER      N/A       39  30  70 NW8G14     N/A   WCI  33
* DENTON       N/A       39  34  82 W16G22     N/A   WCI  30
* GEYSER       N/A       34  33  96 W14G19     N/A   WCI  24
* JUDITH GAP   N/A       37  29  73 NW20G28    N/A   WCI  27
* LOMA         N/A       42  33  71 W12G19     N/A
$$

MTZ017>020-022>027-061-062-160600-
NORTHEAST MONTANA
CITY           SKY/WX    TMP DP  RH WIND       PRES   REMARKS
GLASGOW        CLOUDY    37  21  52 NE9       29.71R WCI  30
GLENDIVE       PTCLDY    39  21  48 NE15      29.64R WCI  31
JORDAN         MOCLDY    37  23  57 W7        29.69R WCI  32
SIDNEY         CLOUDY    41  21  45 NE12      29.70R
WOLF POINT     CLOUDY    37  21  52 NE13      29.71R WCI  29
* BEAVER HILL  N/A       38  24  57 NE14       N/A   WCI  30
* CIRCLE       N/A       42  24  49 N1G6       N/A
* LINDSAY DVD  N/A       38  22  53 N12        N/A   WCI  30
* NAVAJO       N/A       28  20  72 NE16       N/A   WCI  16
* SACO         N/A       37  20  50 N13G21     N/A   WCI  29
$$

MTZ028>042-056>058-160600-
SOUTHCENTRAL AND SOUTHEAST MONTANA
CITY           SKY/WX    TMP DP  RH WIND       PRES   REMARKS
BAKER          CLOUDY    45  28  51 CALM      29.61R
BILLINGS       CLOUDY    41  30  65 NW20      29.77R
LIVINGSTON     CLOUDY    37  34  89 SW18      29.85R WCI  27
MILES CITY     MOCLDY    48  32  54 W18       29.63R
* LAUREL APT   MOCLDY    43  28  56 W10G16     N/A
* ROUNDUP APT  CLOUDY    43  28  56 W22        N/A
* HYSHAM       N/A       41  34  76 W8         N/A
* REED POINT   N/A       41  30  65 W15G22     N/A
* ROSCOE HILL  N/A       36  17  46 W6G24      N/A   WCI  31
$$

REGIONAL REPORTS...DAKOTAS
CITY           SKY/WX    TMP DP  RH WIND       PRES   REMARKS
WILLISTON      CLOUDY   N/A N/A N/A N/A       29.74R
DICKINSON      CLOUDY    34  19  54 NE9       29.65R WCI  27
CROSBY         CLOUDY    27  25  92 E23G33    29.83R WCI  13
TIOGA          CLOUDY    27  23  85 E22G31    29.80R WCI  13
WATFORD CITY   FAIR      32  18  56 E21G30    29.70R WCI  20
BISMARCK       MOCLDY    28  19  69 E20       29.77S WCI  15
GRAND FORKS    CLOUDY    30  12  47 E15       29.97F WCI  19
FARGO          CLOUDY    34  14  44 E9        29.96F WCI  27
BUFFALO SD     CLOUDY    45  27  49 NE12      29.56R
RAPID CITY     CLOUDY    46  37  71 NW30G38   29.59R
$$

REGIONAL REPORTS...WYOMING/IDAHO/WASHINGTON
CITY           SKY/WX    TMP DP  RH WIND       PRES   REMARKS
GILLETTE       LGT RAIN  36  34  92 NW16      29.67S WCI  26
SHERIDAN       CLOUDY    39  34  82 NW26G31   29.73S WCI  28
CODY           MOCLDY    37  30  76 E8        29.78R WCI  31
YELLOWSTONE LA MOCLDY    25  19  78 VRB6      29.86S WCI  18
SALMON         PTCLDY    36  19  50 S6        29.99R WCI  31
MULLAN PASS    CLOUDY    27  27 100 S8        29.90S WCI  19
SPOKANE        CLOUDY    46  23  40 W9        29.92S
$$

REGIONAL REPORTS...ALBERTA
CITY           SKY/WX    TMP DP  RH WIND       PRES   REMARKS
LETHBRIDGE     LGT SNOW  32  32 100 W3        29.88R VSB 1

$$




USA.gov is the U.S. government's official web portal to all federal, state and local government web resources and services.